SCP
1 1 1 1 1 1 1 0 0 0 0 1 1 1 1 1 1 1 1 2 2 2 1 1 1 1 1 0 0 0 0 1 1 1 1 0 0 0 1 1 1 1 0
1 1 1 1 1 1 1 0 0 0 0 1 1 1 1 1 1 1 1 1 1 1 1 1 1 1 1 0 0 0 0 0 0 0 0 0 0 0 0 0 0 0 0
1 1 1 1 1 1 1 0 0 0 0 0 1 1 1 0 0 0 0 1 1 1 1 1 1 1 1 1 0 0 0 0 0 0 0 0 0 0 0 0 0 0 0
1 1 1 1 1 1 0 0 0 0 0 0 0 0 0 0 0 0 0 0 0 0 1 1 1 1 1 1 0 0 0 0 0 0 0 1 0 0 0 0 0 0 0
1 1 1 1 1 0 0 0 0 0 0 0 0 0 0 0 0 0 0 0 0 0 0 0 0 1 1 0 0 0 0 0 0 0 0 1 0 0 0 0 0 0 0
1 1 1 1 0 0 0 0 0 0 0 0 0 0 0 0 0 0 0 0 0 0 0 0 0 0 0 0 0 0 0 0 0 0 0 0 0 0 0 0 0 0 0
0 0 0 0 0 0 0 0 0 0 0 0 0 0 1 0 0 0 0 0 0 0 0 0 0 0 0 0 0 0 0 0 0 0 0 0 0 0 0 0 0 0 0
0 0 0 0 0 0 0 0 0 0 0 0 0 0 1 0 0 0 0 0 0 0 0 0 0 0 0 0 0 0 0 0 0 0 0 0 0 0 0 0 0 0 0
0 0 0 0 0 0 0 0 0 0 0 0 0 0 0 0 0 0 0 0 0 0 0 0 0 0 0 0 0 0 0 0 0 0 0 0 0 0 0 0 0 0 0
0 0 0 0 0 0 0 0 0 0 0 0 0 0 0 0 0 0 0 0 0 0 0 0 0 0 0 0 0 0 0 0 0 0 0 0 0 0 0 0 0 0 0
0 0 0 0 0 0 0 0 0 0 0 0 0 0 0 0 0 0 0 0 0 0 0 0 0 0 0 0 0 0 0 0 0 0 0 0 0 0 0 0 0 0 0
0 0 0 0 0 0 0 0 0 0 0 0 0 0 0 0 0 0 0 0 0 0 0 0 0 0 0 0 0 0 0 0 0 0 0 0 0 0 0 0 0 0 0
0 0 0 0 0 0 0 0 0 0 0 0 0 0 0 0 0 0 0 0 0 0 0 0 0 0 0 0 0 0 0 0 0 0 0 0 0 0 0 0 0 0 0
0 0 0 0 0 0 0 0 0 0 0 0 0 0 0 0 0 0 0 0 0 0 0 0 0 0 0 0 0 0 0 0 0 0 0 0 0 0 0 0 0 0 0
0 0 0 0 0 0 0 0 0 0 0 0 0 0 0 0 0 0 0 0 0 0 0 0 0 0 0 0 0 0 0 0 0 0 1 0 0 0 0 0 0 0 0
0 0 0 0 0 0 0 0 0 0 0 0 0 0 0 0 0 0 0 0 0 0 0 0 0 0 0 0 0 0 0 0 0 0 0 0 0 0 0 0 0 0 0
0 0 0 0 0 0 0 0 0 0 0 0 0 0 0 0 0 0 0 0 0 0 0 0 0 0 0 0 0 0 0 0 0 0 0 0 0 0 0 0 0 0 0
0 0 0 0 0 0 0 0 0 0 0 0 0 0 0 0 0 0 0 0 0 0 0 0 0 0 0 0 0 0 0 0 0 0 0 0 0 0 0 0 0 0 0
0 0 0 0 0 0 0 0 0 0 0 0 0 0 0 0 0 0 0 0 0 0 0 0 0 0 0 0 0 0 0 0 0 0 0 0 0 0 0 0 0 0 0
0 0 0 0 0 0 0 0 0 0 0 0 0 0 0 0 0 0 0 0 0 0 0 0 0 0 0 0 0 0 0 0 0 0 0 0 0 0 0 0 0 0 0
0 0 0 0 0 0 0 0 0 0 0 0 0 0 0 0 0 0 0 0 0 0 0 0 0 0 0 0 0 0 0 0 0 0 0 0 0 0 0 0 0 0 0
0 0 0 0 0 0 0 0 0 0 0 0 0 0 0 0 0 0 0 0 0 0 0 0 0 0 0 0 0 0 0 0 0 0 0 0 0 0 0 0 0 0 0
0 0 0 0 0 0 0 0 0 0 0 0 0 0 0 0 0 0 0 0 0 0 0 0 0 0 0 0 0 0 0 0 0 0 0 0 0 0 0 0 0 0 0
0 0 0 0 0 0 0 0 0 0 0 0 0 0 0 0 0 0 0 0 0 0 0 0 0 0 0 0 0 0 0 0 0 0 0 0 0 0 0 0 0 0 0
0 0 0 0 0 0 0 0 0 0 0 0 0 0 0 0 0 0 0 0 0 0 0 0 0 0 0 0 0 0 0 0 0 0 0 0 0 0 0 0 0 0 0
0 0 0 0 0 0 0 0 0 0 0 0 0 0 0 0 0 0 0 0 0 0 0 0 0 0 0 0 0 0 0 0 0 0 0 0 0 0 0 0 0 0 0
Wind_Speed
5 4 4 4 4 4 4 4 4 4 4 4 5 5 5 5 4 4 4 3 3 3 3 3 3 3 2 2 1 1 1 1 1 0 1 1 1 1 1 1 1 2 4
5 5 4 4 4 4 4 4 4 4 4 4 5 5 5 5 5 5 4 4 4 4 4 3 3 2 2 2 1 1 1 0 1 1 0 1 1 1 2 1 1 1 2
5 5 5 4 4 4 4 4 4 4 4 5 5 5 5 5 5 5 5 4 4 4 4 4 4 3 3 2 2 1 0 1 1 1 1 1 1 1 2 2 1 1 2
5 5 5 4 4 4 3 3 4 4 4 4 5 5 5 5 5 5 5 4 4 4 4 4 4 3 3 3 1 0 1 1 2 2 2 2 1 1 1 1 1 1 1
5 5 5 4 4 3 3 4 4 4 4 4 5 5 5 5 6 7 5 4 4 4 3 4 4 4 4 3 3 2 1 1 2 2 2 2 1 1 1 0 1 1 2
5 5 4 3 3 3 3 3 4 4 5 5 6 6 6 6 8 8 7 4 4 4 3 3 2 2 3 1 1 1 2 2 1 1 1 2 2 1 1 1 1 1 1
5 5 4 3 3 3 3 3 4 4 4 5 5 5 6 7 8 8 7 4 4 4 4 4 4 4 3 3 1 3 2 1 2 2 2 2 2 2 2 2 1 1 1
5 5 4 3 3 3 3 3 3 3 4 4 4 5 5 6 7 7 7 3 4 4 4 4 4 4 6 5 3 3 3 2 0 1 0 1 1 1 2 2 2 2 2
5 5 4 3 3 3 3 3 3 3 3 4 4 4 5 5 7 8 8 3 3 4 4 5 5 5 7 7 3 3 4 3 4 4 2 1 0 1 2 3 2 2 2
5 4 4 3 3 3 3 2 2 2 2 3 4 4 4 5 6 7 8 3 3 3 3 4 6 6 7 7 4 4 4 4 3 3 2 3 3 4 5 5 3 3 2
5 5 4 3 3 3 2 1 1 2 2 2 2 2 3 4 4 6 8 4 4 3 4 3 5 6 7 7 5 4 4 3 1 1 1 1 1 1 3 3 2 3 3
5 5 4 3 2 2 2 1 1 1 1 1 1 1 2 2 3 4 4 5 5 4 3 4 5 6 6 5 4 4 3 4 1 1 1 1 1 1 1 1 2 3 3
5 4 4 3 2 1 1 1 1 1 0 1 1 2 2 2 2 2 1 1 3 2 3 4 4 4 3 1 0 2 3 2 2 2 2 1 1 1 1 1 1 2 3
5 4 3 3 3 2 1 1 0 1 1 1 2 2 2 2 2 2 1 2 3 2 1 1 4 4 3 1 1 2 1 2 3 2 2 2 1 1 2 2 2 2 3
4 4 3 3 3 2 1 1 1 2 3 3 3 2 3 3 5 6 5 4 5 5 4 3 2 1 1 0 0 1 1 0 1 2 2 2 2 2 2 2 2 3 4
5 4 3 3 2 2 2 3 2 1 1 2 3 5 2 2 3 4 4 5 5 6 5 2 1 1 1 1 1 1 1 1 1 2 2 3 3 3 2 2 3 3 4
4 3 2 2 2 2 1 1 2 4 6 6 6 5 5 5 5 5 5 6 6 5 4 2 1 1 2 2 2 2 2 2 2 3 3 3 3 3 3 4 4 4 4
4 4 3 3 2 1 1 1 1 1 2 3 7 8 8 7 7 6 6 6 5 5 3 2 2 2 2 2 2 2 2 2 2 3 3 3 4 4 4 4 4 5 5
5 4 3 2 2 2 2 2 1 1 1 1 2 5 9 9 9 8 6 6 5 3 2 2 3 3 2 3 3 3 3 3 4 4 4 4 5 5 5 5 5 5 6
4 1 3 3 3 3 3 3 2 2 2 2 2 2 2 4 4 5 6 5 4 4 3 3 3 3 3 4 3 3 3 4 4 5 4 4 5 5 6 7 7 6 6
5 5 7 6 5 4 3 3 3 3 3 3 2 0 2 5 4 4 4 3 4 4 4 4 4 4 4 4 4 4 5 4 4 5 5 5 5 6 6 7 7 8 7
5 5 6 5 4 4 4 4 4 4 4 5 4 4 7 7 5 4 4 4 4 4 4 4 5 5 4 5 4 5 6 6 5 5 6 6 6 7 7 7 8 8 8
6 6 5 5 5 4 6 6 5 5 5 5 5 4 5 5 5 5 5 4 4 5 5 5 6 6 5 5 5 6 6 6 6 6 7 8 8 8 8 8 10 11 10
7 7 7 6 6 7 7 6 6 6 6 6 6 6 6 5 6 6 6 6 5 5 6 6 7 8 9 7 7 7 5 5 7 8 10 10 10 9 9 9 10 12 11
8 7 7 7 7 7 7 7 7 7 7 7 7 7 7 7 7 7 7 6 7 7 7 8 7 8 10 11 10 8 3 3 5 7 9 9 11 11 11 12 11 12 12
8 8 8 7 7 7 7 7 7 8 8 7 7 8 8 8 7 7 7 7 7 7 8 8 9 10 11 11 10 8 5 5 6 7 8 10 11 11 11 11 14 12 13
Wind_Direction
107 96 88 80 74 73 65 58 47 34 23 15 15 14 11 9 10 10 14 5 9 18 8 4 3 357 348 338 310 285 269 260 244 325 360 64 71 79 88 86 130 170 147
114 104 95 87 78 70 64 53 44 35 25 25 22 18 15 16 13 12 10 7 9 11 9 4 4 8 4 347 334 308 298 276 221 190 236 180 125 128 127 139 142 169 138
118 114 103 94 83 70 61 49 40 36 30 27 27 24 20 20 19 13 10 12 15 12 9 4 2 4 1 9 341 354 105 144 203 187 169 149 144 129 149 149 143 179 178
116 109 101 91 80 70 62 51 41 34 29 26 26 26 23 23 19 14 14 14 16 16 16 14 9 3 357 351 355 359 163 186 183 182 158 154 148 141 173 154 159 169 195
121 111 101 95 90 79 68 56 46 38 34 30 31 34 29 29 20 3 2 15 16 19 21 26 30 24 11 347 348 344 267 226 189 166 166 163 139 149 146 195 163 176 167
125 118 110 107 101 87 73 63 52 43 37 37 35 34 32 32 14 355 341 9 18 22 19 22 46 53 48 38 311 309 302 268 239 199 171 152 150 160 153 215 203 206 185
132 128 127 121 109 98 78 70 56 46 42 40 36 38 40 35 10 356 347 357 32 24 13 11 21 36 5 21 98 185 182 224 260 261 182 177 177 161 217 225 214 294 316
136 132 130 119 106 97 77 63 54 50 44 38 34 33 34 36 10 356 343 2 33 27 25 25 24 22 28 6 15 49 64 62 321 242 106 197 172 206 262 262 245 239 227
139 133 124 114 103 95 84 65 50 50 46 40 39 31 29 34 14 354 338 21 42 41 38 34 28 34 26 356 11 45 59 66 89 89 81 79 67 245 272 265 251 252 257
138 133 119 108 100 91 82 67 60 52 41 38 42 34 28 26 18 359 341 4 36 39 61 64 58 34 16 360 6 31 46 44 48 82 117 170 193 188 211 247 273 284 296
140 133 122 111 108 99 88 68 59 46 42 38 37 41 45 34 42 15 357 358 14 19 35 45 55 41 19 6 358 23 28 355 1 67 87 106 140 176 202 221 258 278 295
145 137 131 127 123 116 119 105 81 47 80 73 64 49 66 67 38 36 15 7 346 6 15 26 49 29 10 359 8 24 341 298 280 58 58 49 45 36 12 320 300 298 297
151 144 139 141 143 145 159 150 157 163 326 25 41 49 54 63 96 142 174 331 333 335 9 24 357 334 319 315 144 296 286 287 17 31 35 24 3 355 290 249 237 243 250
155 151 151 157 159 153 208 193 81 24 6 4 11 17 33 47 31 31 73 163 191 210 308 259 237 251 254 280 252 231 275 7 2 3 7 1 340 271 265 272 271 261 266
161 165 168 163 145 153 127 32 357 33 9 334 352 354 356 19 31 6 340 351 352 9 335 290 267 221 192 139 61 22 357 321 318 344 333 319 316 309 306 304 297 289 289
173 177 179 170 164 176 148 144 146 245 214 257 289 310 342 7 342 330 324 313 305 305 297 289 319 338 345 1 354 341 323 339 326 312 311 315 316 310 303 293 285 289 293
181 179 183 176 172 176 172 178 163 185 216 227 232 245 266 297 297 293 292 290 282 277 267 289 311 316 316 317 320 320 327 333 311 301 303 304 304 300 297 295 294 295 298
186 177 203 196 199 196 195 211 214 204 180 185 201 216 228 243 257 268 278 277 249 224 251 274 282 288 291 300 305 310 310 306 298 301 304 299 294 295 296 297 297 302 304
197 187 200 204 207 205 215 225 216 236 252 240 195 181 204 220 228 241 245 258 280 280 272 274 280 283 285 287 294 298 299 300 305 301 296 295 295 293 295 297 300 305 292
196 201 244 236 223 220 225 234 233 232 244 252 251 246 196 222 235 216 214 242 266 277 284 282 280 281 278 280 279 278 278 281 282 279 286 289 288 290 293 294 297 297 294
197 186 208 235 234 235 237 241 246 252 252 253 256 8 312 281 273 273 268 258 265 277 283 285 277 268 263 265 273 277 279 282 287 292 293 291 291 291 292 292 291 292 295
217 211 213 225 229 235 247 247 247 249 254 257 256 205 194 246 267 270 270 270 270 268 270 274 276 274 275 274 275 273 275 278 285 291 294 293 290 288 287 289 291 293 294
229 229 228 229 234 229 240 248 251 254 256 258 261 266 245 257 269 268 270 270 268 266 266 261 264 270 272 268 269 270 274 281 287 293 292 288 288 288 287 289 290 291 292
227 232 234 233 236 239 241 245 247 251 253 254 257 263 266 265 267 269 271 270 269 266 261 261 263 268 269 269 266 265 269 280 285 283 284 284 286 287 288 288 288 290 292
234 237 239 237 239 242 245 248 251 252 252 252 255 260 263 264 263 261 261 263 265 266 267 266 264 263 264 265 268 272 270 250 262 280 279 275 277 281 284 288 289 290 291
237 240 242 241 241 247 250 252 252 253 254 254 256 259 264 266 267 267 267 266 267 266 266 265 266 267 267 265 265 265 248 237 237 243 263 270 273 276 282 284 287 287 288